Location: Clanezzo
(45.7500°N, 9.6000°E)
Time: 13:20:55
(UTC+00:00)

Cosmos 1300 Rocket - Pass Details

Date: 12 May 2021
Orbit: 601 x 627 km, 82.5° (Epoch: 19 June)

Event Time Altitude Azimuth Distance (km) Brightness Sun altitude
Rises 23:31:06 0° 351° (N) 2,910 8.3 -25.8°
Reaches altitude 10° 23:33:21 10° 353° (N) 1,995 7.2 -25.8°
Enters shadow 23:37:20 71° 15° (NNE) 656 3.7 -25.7°
